SCP
-0 0 0 0 0 0 0 0 0 0 0 0 0 0 0 0 -0 -0 -0 -0 0 0 0 0 0 0 0 0 0 0 0 0 0 0 0 -0 0 0 0 0 0 0 0 0
0 0 0 0 0 0 0 0 0 0 0 0 -0 -0 -0 0 -0 -0 -0 0 0 0 0 0 0 0 0 0 0 0 0 0 0 0 0 0 -0 0 0 0 -0 -0 -0 0
-0 -0 0 -0 -0 0 0 0 0 0 0 -0 0 -0 -0 -0 -0 -0 0 0 0 0 0 0 0 0 0 0 0 0 0 0 0 -0 0 0 0 0 -0 -0 0 0 -0 0
-0 -0 -0 0 0 0 0 0 0 0 0 0 0 -0 -0 -0 -0 -0 0 0 0 0 0 0 0 0 0 0 0 0 0 0 0 0 0 0 0 0 0 0 -0 0 0 0
-0 -0 -0 -0 0 0 0 0 0 0 0 0 0 0 0 -0 -0 0 -0 0 0 0 0 0 0 0 0 0 0 0 0 0 0 -0 0 0 0 0 0 -0 -0 0 0 0
-0 -0 -0 -0 -0 0 0 0 0 0 0 0 -0 0 0 0 -0 -0 -0 0 0 0 0 0 -0 -0 -0 0 0 0 0 0 0 0 0 0 0 -0 0 0 0 0 0 0
-0 -0 -0 -0 -0 0 0 0 0 0 0 0 0 0 0 0 -0 -0 -0 0 0 0 0 -0 -0 -0 -0 -0 0 0 0 0 0 0 0 0 0 0 0 0 0 0 0 0
-0 -0 -0 -0 -0 0 0 0 0 0 0 0 0 -0 -0 -0 -0 -0 -0 -0 -0 0 0 -0 0 -0 0 -0 0 0 -0 0 0 0 0 0 0 0 0 0 0 0 0 0
-0 -0 -0 -0 -0 0 0 0 0 0 0 0 0 -0 -0 0 0 -0 -0 -0 0 -0 0 0 0 0 0 0 0 0 0 0 0 0 0 0 0 0 0 -0 0 0 0 0
-0 -0 -0 -0 -0 0 0 0 0 0 0 0 0 0 0 0 0 0 -0 0 0 0 0 -0 0 0 -0 0 0 0 0 0 0 0 0 0 0 0 -0 0 0 0 0 0
-0 -0 -0 -0 -0 0 0 0 0 0 0 0 0 -0 0 0 0 0 0 0 0 -0 0 0 0 0 0 0 0 0 0 -0 0 0 0 0 0 0 0 0 0 0 0 0
-0 -0 -0 -0 -0 -0 0 0 0 0 0 0 -0 -0 -0 0 0 0 0 0 0 -0 0 0 0 0 0 0 0 0 0 0 0 0 0 0 0 0 0 0 0 0 0 0
-0 -0 -0 -0 -0 -0 0 0 0 0 -0 0 0 0 -0 0 0 0 0 0 0 0 0 0 -0 -0 -0 0 0 0 0 0 0 0 0 0 0 0 0 0 0 0 0 0
-0 -0 -0 -0 -0 -0 0 0 0 0 0 0 0 0 0 -0 -0 -0 -0 -0 0 -0 -0 0 -0 -0 -0 -0 0 0 0 0 0 0 0 0 0 0 0 0 0 0 0 0
-0 -0 -0 -0 0 -0 0 0 0 0 0 -0 0 -0 -0 -0 -0 -0 -0 0 -0 -0 -0 -0 -0 0 0 0 0 0 0 0 0 0 0 0 0 0 0 0 0 0 0 0
-0 -0 -0 -0 0 0 0 0 0 0 0 0 0 0 -0 -0 -0 -0 -0 0 0 -0 -0 0 0 -0 -0 0 0 0 0 0 0 0 0 0 0 0 0 0 0 0 0 0
-0 -0 -0 -0 -0 0 0 0 0 0 0 0 0 0 0 0 0 -0 0 -0 -0 0 0 0 0 0 0 0 0 0 0 0 0 0 0 0 0 0 0 0 0 0 0 0
-0 -0 0 0 0 0 0 0 0 0 0 0 0 -0 -0 -0 0 0 -0 0 0 0 0 0 0 0 0 0 0 0 0 0 0 0 0 0 0 0 0 0 0 0 0 0
-0 -0 0 0 0 0 0 -0 -0 0 0 0 0 -0 -0 -0 -0 -0 -0 -0 0 -0 0 0 0 0 0 0 0 0 0 0 0 0 0 0 0 0 0 0 0 0 0 0
-0 0 0 0 0 0 0 0 0 0 0 0 0 0 0 -0 -0 0 0 -0 0 0 0 0 0 0 0 0 0 0 0 0 0 0 0 0 0 0 0 0 0 0 0 0
0 0 0 0 0 0 0 0 0 0 0 0 0 0 0 0 -0 0 -0 0 0 0 0 0 0 0 0 0 0 0 0 0 0 0 0 0 0 0 0 0 0 0 0 0
0 0 0 0 0 0 0 0 0 0 0 0 0 0 0 0 0 0 0 0 0 0 0 0 0 0 0 0 0 0 0 0 0 0 0 0 0 0 0 0 0 0 0 0
0 0 0 0 0 0 0 0 0 0 0 0 0 0 0 0 -0 0 0 0 0 0 0 0 0 0 0 0 0 0 0 0 0 0 0 0 0 0 0 0 0 0 0 0
0 0 0 0 0 0 0 0 0 0 0 0 0 0 0 0 0 0 0 0 0 0 0 0 0 0 0 0 0 0 0 0 0 0 0 0 0 0 0 0 0 0 0 0
0 0 0 0 0 0 0 0 0 0 0 0 0 0 0 0 0 0 0 0 0 0 0 0 0 0 0 0 0 0 0 0 0 0 0 0 0 0 0 0 0 0 0 0
0 0 0 0 0 0 0 0 0 0 0 0 0 0 0 0 0 0 0 0 0 0 0 0 0 0 0 0 0 0 0 0 0 0 0 0 0 0 0 0 0 0 0 0
0 0 0 0 0 0 0 0 0 0 0 0 0 0 0 0 0 0 0 0 0 0 0 0 0 0 0 0 0 0 0 0 0 0 0 0 0 0 0 0 0 0 0 0
Wind_Speed_500mb
37 32 19 7 10 17 23 16 12 18 17 23 24 15 16 7 21 22 21 17 17 16 14 14 8 20 18 15 19 15 14 12 18 14 17 20 17 15 17 19 9 5 11 14
37 31 17 5 11 19 16 20 10 16 14 12 12 23 21 18 19 18 22 12 13 10 8 5 5 15 20 23 26 18 20 11 18 22 10 11 28 36 38 22 25 27 16 7
36 30 15 4 11 17 15 8 9 18 20 27 17 27 25 21 24 22 20 6 6 10 8 5 4 20 13 20 22 14 10 6 11 22 31 30 24 34 36 33 12 16 21 20
36 29 15 3 10 17 13 10 7 4 16 15 19 18 23 25 17 12 4 8 16 13 7 3 8 10 20 17 8 13 10 12 20 34 33 28 27 34 19 12 11 12 24 19
37 29 17 2 9 16 8 7 8 8 11 10 18 6 10 20 13 3 11 14 17 18 14 12 12 9 12 11 12 9 3 6 24 27 21 28 23 5 11 14 19 18 16 20
37 29 19 5 6 14 3 5 7 16 10 19 20 13 10 18 23 19 16 10 17 18 19 21 24 27 23 17 18 5 5 12 9 5 14 15 12 23 15 9 22 20 19 22
37 30 23 12 3 15 10 12 5 13 14 20 9 17 22 14 22 20 19 14 17 15 18 24 26 29 28 28 21 14 6 1 6 12 10 9 11 14 5 17 15 20 19 21
37 32 25 15 8 9 11 16 1 8 14 17 21 28 33 32 26 26 26 23 24 20 10 11 10 14 8 23 19 18 11 8 5 6 8 20 21 19 15 10 24 19 22 28
35 33 28 18 11 10 11 9 21 5 24 20 19 28 22 18 17 23 27 22 18 2 18 5 13 8 9 6 10 10 15 7 6 9 5 4 16 23 13 8 9 28 35 33
34 33 35 22 14 10 11 15 25 15 23 12 15 9 10 10 4 16 18 13 9 10 10 6 3 9 7 1 11 11 4 4 4 10 10 9 19 25 22 8 16 33 29 36
29 32 32 29 17 13 14 13 24 20 30 23 20 22 19 5 10 7 15 12 10 11 8 3 4 3 7 9 11 9 14 15 9 5 5 8 34 18 15 22 31 28 31 43
23 32 33 31 20 16 23 15 27 27 21 26 31 34 28 20 14 8 8 6 5 16 4 3 4 7 11 7 5 17 6 15 12 18 11 19 29 25 24 30 28 30 35 40
21 24 28 26 24 21 28 37 35 38 48 38 21 21 26 23 12 7 9 5 4 3 5 7 12 12 6 9 11 23 10 27 9 12 13 24 28 29 30 35 37 39 39 41
18 19 21 21 17 19 24 26 29 17 20 20 24 21 27 25 23 22 18 22 23 19 11 15 11 9 18 19 22 23 18 18 10 19 28 6 36 34 36 38 37 40 40 39
15 15 19 26 19 12 19 22 27 22 6 30 33 30 28 25 23 24 24 18 15 24 26 27 18 23 18 28 24 17 29 25 13 8 25 24 28 30 36 37 40 39 38 41
10 13 4 12 11 16 10 11 16 32 33 38 12 23 26 26 28 30 28 26 27 28 27 22 15 8 11 7 9 7 21 23 27 15 18 19 21 25 33 38 40 40 40 40
7 14 11 17 9 4 5 13 22 30 27 36 26 18 12 19 24 25 26 26 27 26 26 28 21 13 10 21 14 15 11 14 16 17 18 23 25 29 30 31 35 37 36 38
9 8 12 24 33 36 34 33 26 19 12 9 8 19 19 11 20 15 16 20 19 19 17 16 16 12 14 9 15 16 11 12 10 13 16 22 28 29 34 38 41 40 42 43
13 9 17 19 15 19 19 19 13 18 12 3 15 15 16 9 23 18 11 7 12 4 12 11 7 11 11 19 15 9 7 4 16 20 21 24 28 32 31 30 35 36 43 47
15 15 5 11 9 22 15 7 5 5 8 5 14 15 15 10 18 5 11 5 7 7 10 7 10 8 21 12 9 4 1 8 16 20 24 26 32 36 41 41 36 38 45 43
7 2 7 7 10 2 4 4 5 3 8 6 5 11 18 5 9 10 7 5 1 5 7 7 5 8 19 9 3 1 7 12 15 16 20 25 32 39 43 44 43 45 48 49
8 13 18 10 3 6 2 3 5 6 6 8 9 10 10 6 4 1 3 1 5 6 8 7 7 10 21 8 2 2 7 12 16 18 25 30 35 39 43 44 47 48 49 49
15 7 5 7 4 8 3 5 6 9 8 8 15 16 3 8 6 2 3 1 5 1 6 5 5 23 16 7 2 3 7 14 19 25 30 34 36 38 39 43 42 44 45 46
4 4 9 5 3 6 6 12 15 10 5 9 3 12 3 1 3 3 3 5 7 5 7 5 18 20 11 6 1 6 12 16 23 27 30 33 35 37 38 39 41 43 45 46
7 5 2 6 6 9 8 7 13 10 5 5 9 7 6 5 4 2 4 5 3 6 8 16 26 18 10 5 2 9 13 19 24 28 30 31 34 37 40 41 40 41 42 43
6 5 7 6 7 8 7 4 10 5 3 5 4 3 2 3 0 4 1 2 5 9 18 25 17 12 8 4 4 8 13 19 24 26 26 30 34 38 42 39 39 39 41 40
3 6 7 9 8 7 6 5 6 3 8 2 3 1 5 1 1 4 4 3 16 15 16 17 15 11 8 4 6 10 15 20 22 23 27 30 32 37 36 40 42 41 39 39
Wind_Direction_500mb
353 350 353 1 167 166 157 215 207 180 201 235 244 117 108 67 100 86 73 57 34 32 360 357 356 47 28 11 341 2 56 304 312 352 49 354 29 357 356 331 353 342 318 34
356 352 354 6 175 169 172 234 150 184 205 246 183 127 107 84 86 68 69 79 62 47 34 304 25 102 42 31 37 18 339 38 303 108 41 4 15 27 24 338 3 333 43 158
359 357 355 2 187 179 200 233 158 170 215 267 156 159 138 111 96 70 75 65 33 21 12 44 163 135 70 61 65 36 349 334 349 39 61 57 40 34 28 30 32 34 350 52
1 0 356 340 186 184 189 248 94 154 195 196 157 165 142 137 117 115 33 53 25 8 343 69 81 107 157 122 77 53 5 73 74 68 76 69 54 40 17 53 346 4 11 33
2 3 3 301 197 188 197 282 199 194 88 153 152 130 150 104 97 45 72 65 46 35 48 20 39 337 12 33 99 48 312 113 93 94 85 72 64 221 271 28 357 354 11 19
5 8 9 2 205 180 214 282 192 239 157 196 189 130 147 113 112 58 64 28 82 71 68 78 81 83 71 47 7 44 248 165 139 93 100 121 58 25 28 85 42 6 13 358
10 12 16 27 123 200 190 213 199 228 172 198 119 129 128 119 78 101 64 40 106 117 118 112 105 96 81 61 57 360 81 139 78 154 184 69 83 16 332 86 47 16 22 357
15 17 20 36 77 141 158 161 141 298 160 116 118 116 111 106 94 80 75 65 113 136 172 179 184 179 139 96 43 73 5 103 115 135 85 130 49 18 337 305 54 24 0 355
20 25 25 41 72 109 123 144 128 182 135 45 107 136 142 129 116 96 96 104 121 297 260 197 268 50 19 52 115 52 92 167 183 180 152 119 359 5 342 269 31 4 4 353
26 31 29 40 63 84 111 113 112 99 97 65 13 65 37 50 75 81 128 138 208 274 252 246 270 98 319 60 49 345 63 85 99 91 48 117 355 7 302 336 348 359 343 341
33 36 33 35 60 80 99 114 117 100 113 77 74 66 60 32 333 24 117 184 193 204 280 308 117 165 63 88 35 29 9 315 42 284 116 107 9 26 31 344 326 328 341 340
29 36 36 35 54 77 87 85 111 108 100 115 88 72 59 55 41 12 171 21 334 7 346 50 117 174 147 145 112 43 49 32 31 22 54 66 46 41 15 352 345 338 338 337
23 25 36 40 50 87 93 101 95 101 112 101 71 45 41 42 57 83 323 100 65 150 304 71 49 69 332 99 93 118 84 23 93 73 80 63 35 15 10 350 342 337 332 330
30 36 45 50 59 85 85 124 103 113 114 107 69 65 57 58 70 74 80 99 108 129 147 101 102 93 40 63 57 60 29 42 46 47 18 101 29 12 0 352 351 346 341 335
40 56 84 57 68 102 73 92 100 108 36 116 113 81 65 72 80 87 93 112 126 109 101 99 93 99 109 100 76 36 40 25 51 44 11 8 8 3 0 356 355 351 346 350
59 53 101 47 65 84 136 84 78 115 110 128 106 87 79 83 91 93 99 96 97 98 100 93 81 72 293 93 102 66 60 47 44 27 10 11 2 3 2 359 2 2 360 357
95 50 43 40 69 204 70 103 132 128 113 121 135 122 101 99 107 102 98 96 93 88 81 92 103 78 71 58 91 112 64 46 21 14 9 4 355 353 354 353 354 353 357 358
161 71 83 83 82 89 95 103 110 109 101 108 98 107 138 173 139 118 124 103 89 80 102 120 114 139 69 85 93 81 58 13 353 357 349 353 345 344 359 345 343 345 345 345
175 106 103 89 74 101 87 100 64 57 32 94 139 164 126 174 117 129 120 129 97 132 104 91 8 44 46 118 114 78 32 22 352 346 348 348 347 350 338 346 347 343 335 331
140 112 167 96 98 110 98 62 103 55 51 358 79 92 136 187 170 103 140 327 125 164 63 99 64 58 118 111 117 96 339 308 340 344 349 351 346 344 341 343 339 334 330 323
100 102 68 107 113 132 18 84 26 121 112 95 91 47 139 62 310 101 336 41 5 79 147 101 101 144 172 164 136 344 334 345 341 343 338 333 328 332 334 335 334 330 330 330
97 105 96 78 356 15 30 81 131 21 76 142 156 102 63 113 28 277 170 310 220 92 136 90 129 152 167 176 132 331 354 346 345 338 330 328 328 331 330 329 328 327 327 326
114 58 70 26 42 27 308 143 155 133 128 143 150 152 149 155 238 69 263 254 50 203 105 68 101 155 167 178 166 342 334 338 333 332 332 329 328 328 330 328 328 326 326 324
63 59 10 325 105 59 8 31 56 92 104 141 193 133 235 178 118 301 160 40 238 280 144 120 145 164 168 162 226 306 335 336 334 333 330 329 330 331 331 331 329 327 326 326
53 33 355 73 103 82 79 104 112 91 102 171 159 148 230 115 139 36 72 191 204 330 64 112 136 157 159 168 283 317 329 330 330 329 328 329 331 331 330 330 330 329 329 331
57 29 114 130 141 131 124 81 102 67 118 137 253 166 72 133 309 185 103 323 322 76 105 129 138 157 170 188 299 319 323 323 324 325 327 329 329 329 329 331 331 334 336 335
59 98 69 58 57 55 56 15 31 1 236 171 324 225 72 85 142 114 308 356 74 104 127 116 120 162 188 237 285 311 317 320 323 324 325 328 329 328 333 333 337 336 340 336
Wind_Speed_850mb
37 32 19 7 10 17 23 16 12 18 17 23 24 15 16 7 21 22 21 17 17 16 14 14 8 20 18 15 19 15 14 12 18 14 17 20 17 15 17 19 9 5 11 14
37 31 17 5 11 19 16 20 10 16 14 12 12 23 21 18 19 18 22 12 13 10 8 5 5 15 20 23 26 18 20 11 18 22 10 11 28 36 38 22 25 27 16 7
36 30 15 4 11 17 15 8 9 18 20 27 17 27 25 21 24 22 20 6 6 10 8 5 4 20 13 20 22 14 10 6 11 22 31 30 24 34 36 33 12 16 21 20
36 29 15 3 10 17 13 10 7 4 16 15 19 18 23 25 17 12 4 8 16 13 7 3 8 10 20 17 8 13 10 12 20 34 33 28 27 34 19 12 11 12 24 19
37 29 17 2 9 16 8 7 8 8 11 10 18 6 10 20 13 3 11 14 17 18 14 12 12 9 12 11 12 9 3 6 24 27 21 28 23 5 11 14 19 18 16 20
37 29 19 5 6 14 3 5 7 16 10 19 20 13 10 18 23 19 16 10 17 18 19 21 24 27 23 17 18 5 5 12 9 5 14 15 12 23 15 9 22 20 19 22
37 30 23 12 3 15 10 12 5 13 14 20 9 17 22 14 22 20 19 14 17 15 18 24 26 29 28 28 21 14 6 1 6 12 10 9 11 14 5 17 15 20 19 21
37 32 25 15 8 9 11 16 1 8 14 17 21 28 33 32 26 26 26 23 24 20 10 11 10 14 8 23 19 18 11 8 5 6 8 20 21 19 15 10 24 19 22 28
35 33 28 18 11 10 11 9 21 5 24 20 19 28 22 18 17 23 27 22 18 2 18 5 13 8 9 6 10 10 15 7 6 9 5 4 16 23 13 8 9 28 35 33
34 33 35 22 14 10 11 15 25 15 23 12 15 9 10 10 4 16 18 13 9 10 10 6 3 9 7 1 11 11 4 4 4 10 10 9 19 25 22 8 16 33 29 36
29 32 32 29 17 13 14 13 24 20 30 23 20 22 19 5 10 7 15 12 10 11 8 3 4 3 7 9 11 9 14 15 9 5 5 8 34 18 15 22 31 28 31 43
23 32 33 31 20 16 23 15 27 27 21 26 31 34 28 20 14 8 8 6 5 16 4 3 4 7 11 7 5 17 6 15 12 18 11 19 29 25 24 30 28 30 35 40
21 24 28 26 24 21 28 37 35 38 48 38 21 21 26 23 12 7 9 5 4 3 5 7 12 12 6 9 11 23 10 27 9 12 13 24 28 29 30 35 37 39 39 41
18 19 21 21 17 19 24 26 29 17 20 20 24 21 27 25 23 22 18 22 23 19 11 15 11 9 18 19 22 23 18 18 10 19 28 6 36 34 36 38 37 40 40 39
15 15 19 26 19 12 19 22 27 22 6 30 33 30 28 25 23 24 24 18 15 24 26 27 18 23 18 28 24 17 29 25 13 8 25 24 28 30 36 37 40 39 38 41
10 13 4 12 11 16 10 11 16 32 33 38 12 23 26 26 28 30 28 26 27 28 27 22 15 8 11 7 9 7 21 23 27 15 18 19 21 25 33 38 40 40 40 40
7 14 11 17 9 4 5 13 22 30 27 36 26 18 12 19 24 25 26 26 27 26 26 28 21 13 10 21 14 15 11 14 16 17 18 23 25 29 30 31 35 37 36 38
9 8 12 24 33 36 34 33 26 19 12 9 8 19 19 11 20 15 16 20 19 19 17 16 16 12 14 9 15 16 11 12 10 13 16 22 28 29 34 38 41 40 42 43
13 9 17 19 15 19 19 19 13 18 12 3 15 15 16 9 23 18 11 7 12 4 12 11 7 11 11 19 15 9 7 4 16 20 21 24 28 32 31 30 35 36 43 47
15 15 5 11 9 22 15 7 5 5 8 5 14 15 15 10 18 5 11 5 7 7 10 7 10 8 21 12 9 4 1 8 16 20 24 26 32 36 41 41 36 38 45 43
7 2 7 7 10 2 4 4 5 3 8 6 5 11 18 5 9 10 7 5 1 5 7 7 5 8 19 9 3 1 7 12 15 16 20 25 32 39 43 44 43 45 48 49
8 13 18 10 3 6 2 3 5 6 6 8 9 10 10 6 4 1 3 1 5 6 8 7 7 10 21 8 2 2 7 12 16 18 25 30 35 39 43 44 47 48 49 49
15 7 5 7 4 8 3 5 6 9 8 8 15 16 3 8 6 2 3 1 5 1 6 5 5 23 16 7 2 3 7 14 19 25 30 34 36 38 39 43 42 44 45 46
4 4 9 5 3 6 6 12 15 10 5 9 3 12 3 1 3 3 3 5 7 5 7 5 18 20 11 6 1 6 12 16 23 27 30 33 35 37 38 39 41 43 45 46
7 5 2 6 6 9 8 7 13 10 5 5 9 7 6 5 4 2 4 5 3 6 8 16 26 18 10 5 2 9 13 19 24 28 30 31 34 37 40 41 40 41 42 43
6 5 7 6 7 8 7 4 10 5 3 5 4 3 2 3 0 4 1 2 5 9 18 25 17 12 8 4 4 8 13 19 24 26 26 30 34 38 42 39 39 39 41 40
3 6 7 9 8 7 6 5 6 3 8 2 3 1 5 1 1 4 4 3 16 15 16 17 15 11 8 4 6 10 15 20 22 23 27 30 32 37 36 40 42 41 39 39
Wind_Direction_850mb
353 350 353 1 167 166 157 215 207 180 201 235 244 117 108 67 100 86 73 57 34 32 360 357 356 47 28 11 341 2 56 304 312 352 49 354 29 357 356 331 353 342 318 34
356 352 354 6 175 169 172 234 150 184 205 246 183 127 107 84 86 68 69 79 62 47 34 304 25 102 42 31 37 18 339 38 303 108 41 4 15 27 24 338 3 333 43 158
359 357 355 2 187 179 200 233 158 170 215 267 156 159 138 111 96 70 75 65 33 21 12 44 163 135 70 61 65 36 349 334 349 39 61 57 40 34 28 30 32 34 350 52
1 0 356 340 186 184 189 248 94 154 195 196 157 165 142 137 117 115 33 53 25 8 343 69 81 107 157 122 77 53 5 73 74 68 76 69 54 40 17 53 346 4 11 33
2 3 3 301 197 188 197 282 199 194 88 153 152 130 150 104 97 45 72 65 46 35 48 20 39 337 12 33 99 48 312 113 93 94 85 72 64 221 271 28 357 354 11 19
5 8 9 2 205 180 214 282 192 239 157 196 189 130 147 113 112 58 64 28 82 71 68 78 81 83 71 47 7 44 248 165 139 93 100 121 58 25 28 85 42 6 13 358
10 12 16 27 123 200 190 213 199 228 172 198 119 129 128 119 78 101 64 40 106 117 118 112 105 96 81 61 57 360 81 139 78 154 184 69 83 16 332 86 47 16 22 357
15 17 20 36 77 141 158 161 141 298 160 116 118 116 111 106 94 80 75 65 113 136 172 179 184 179 139 96 43 73 5 103 115 135 85 130 49 18 337 305 54 24 0 355
20 25 25 41 72 109 123 144 128 182 135 45 107 136 142 129 116 96 96 104 121 297 260 197 268 50 19 52 115 52 92 167 183 180 152 119 359 5 342 269 31 4 4 353
26 31 29 40 63 84 111 113 112 99 97 65 13 65 37 50 75 81 128 138 208 274 252 246 270 98 319 60 49 345 63 85 99 91 48 117 355 7 302 336 348 359 343 341
33 36 33 35 60 80 99 114 117 100 113 77 74 66 60 32 333 24 117 184 193 204 280 308 117 165 63 88 35 29 9 315 42 284 116 107 9 26 31 344 326 328 341 340
29 36 36 35 54 77 87 85 111 108 100 115 88 72 59 55 41 12 171 21 334 7 346 50 117 174 147 145 112 43 49 32 31 22 54 66 46 41 15 352 345 338 338 337
23 25 36 40 50 87 93 101 95 101 112 101 71 45 41 42 57 83 323 100 65 150 304 71 49 69 332 99 93 118 84 23 93 73 80 63 35 15 10 350 342 337 332 330
30 36 45 50 59 85 85 124 103 113 114 107 69 65 57 58 70 74 80 99 108 129 147 101 102 93 40 63 57 60 29 42 46 47 18 101 29 12 0 352 351 346 341 335
40 56 84 57 68 102 73 92 100 108 36 116 113 81 65 72 80 87 93 112 126 109 101 99 93 99 109 100 76 36 40 25 51 44 11 8 8 3 0 356 355 351 346 350
59 53 101 47 65 84 136 84 78 115 110 128 106 87 79 83 91 93 99 96 97 98 100 93 81 72 293 93 102 66 60 47 44 27 10 11 2 3 2 359 2 2 360 357
95 50 43 40 69 204 70 103 132 128 113 121 135 122 101 99 107 102 98 96 93 88 81 92 103 78 71 58 91 112 64 46 21 14 9 4 355 353 354 353 354 353 357 358
161 71 83 83 82 89 95 103 110 109 101 108 98 107 138 173 139 118 124 103 89 80 102 120 114 139 69 85 93 81 58 13 353 357 349 353 345 344 359 345 343 345 345 345
175 106 103 89 74 101 87 100 64 57 32 94 139 164 126 174 117 129 120 129 97 132 104 91 8 44 46 118 114 78 32 22 352 346 348 348 347 350 338 346 347 343 335 331
140 112 167 96 98 110 98 62 103 55 51 358 79 92 136 187 170 103 140 327 125 164 63 99 64 58 118 111 117 96 339 308 340 344 349 351 346 344 341 343 339 334 330 323
100 102 68 107 113 132 18 84 26 121 112 95 91 47 139 62 310 101 336 41 5 79 147 101 101 144 172 164 136 344 334 345 341 343 338 333 328 332 334 335 334 330 330 330
97 105 96 78 356 15 30 81 131 21 76 142 156 102 63 113 28 277 170 310 220 92 136 90 129 152 167 176 132 331 354 346 345 338 330 328 328 331 330 329 328 327 327 326
114 58 70 26 42 27 308 143 155 133 128 143 150 152 149 155 238 69 263 254 50 203 105 68 101 155 167 178 166 342 334 338 333 332 332 329 328 328 330 328 328 326 326 324
63 59 10 325 105 59 8 31 56 92 104 141 193 133 235 178 118 301 160 40 238 280 144 120 145 164 168 162 226 306 335 336 334 333 330 329 330 331 331 331 329 327 326 326
53 33 355 73 103 82 79 104 112 91 102 171 159 148 230 115 139 36 72 191 204 330 64 112 136 157 159 168 283 317 329 330 330 329 328 329 331 331 330 330 330 329 329 331
57 29 114 130 141 131 124 81 102 67 118 137 253 166 72 133 309 185 103 323 322 76 105 129 138 157 170 188 299 319 323 323 324 325 327 329 329 329 329 331 331 334 336 335
59 98 69 58 57 55 56 15 31 1 236 171 324 225 72 85 142 114 308 356 74 104 127 116 120 162 188 237 285 311 317 320 323 324 325 328 329 328 333 333 337 336 340 336